TimeEST,TemperatureF,Dew PointF,Humidity,Sea Level PressureIn,VisibilityMPH,Wind Direction,Wind SpeedMPH,Gust SpeedMPH,PrecipitationIn,Events,Conditions,WindDirDegrees,DateUTC
12:42 AM,64.4,64.4,100,29.97,10.0,SSE,10.4,-,N/A,Thunderstorm,Mostly Cloudy,150,2012-12-07 05:42:00
12:53 AM,66.0,64.9,96,29.96,8.0,SSE,5.8,-,0.00,Rain-Thunderstorm,Light Rain,150,2012-12-07 05:53:00
1:09 AM,66.2,66.2,100,29.97,10.0,Calm,Calm,-,0.00,,Overcast,0,2012-12-07 06:09:00
1:22 AM,66.2,64.4,94,29.98,10.0,ENE,13.8,-,0.00,Thunderstorm,Overcast,70,2012-12-07 06:22:00
1:51 AM,64.4,62.6,94,29.96,10.0,ESE,5.8,-,0.00,,Scattered Clouds,110,2012-12-07 06:51:00
1:53 AM,64.9,63.0,93,29.96,10.0,SE,5.8,-,0.00,,Scattered Clouds,130,2012-12-07 06:53:00
2:53 AM,64.9,63.0,93,29.91,10.0,SE,4.6,-,N/A,,Clear,140,2012-12-07 07:53:00
3:53 AM,64.0,63.0,96,29.93,10.0,Calm,Calm,-,N/A,,Clear,0,2012-12-07 08:53:00
4:53 AM,61.0,60.1,97,29.95,10.0,Calm,Calm,-,N/A,,Clear,0,2012-12-07 09:53:00
5:53 AM,61.0,60.1,97,29.96,10.0,WNW,3.5,-,N/A,,Clear,290,2012-12-07 10:53:00
6:53 AM,60.1,60.1,100,29.97,6.0,Calm,Calm,-,N/A,,Clear,0,2012-12-07 11:53:00
7:00 AM,59.0,59.0,100,29.98,1.8,Calm,Calm,-,N/A,,Clear,0,2012-12-07 12:00:00
7:10 AM,60.8,60.8,100,29.97,3.0,North,3.5,-,N/A,,Clear,10,2012-12-07 12:10:00
7:53 AM,62.1,62.1,100,29.99,10.0,Calm,Calm,-,N/A,,Clear,0,2012-12-07 12:53:00
8:53 AM,70.0,66.9,90,30.01,10.0,North,4.6,-,N/A,,Clear,360,2012-12-07 13:53:00
9:15 AM,71.6,68.0,88,30.02,9.0,North,4.6,-,N/A,,Scattered Clouds,10,2012-12-07 14:15:00
9:42 AM,73.4,68.0,83,30.02,10.0,North,5.8,-,N/A,,Mostly Cloudy,10,2012-12-07 14:42:00
9:53 AM,73.9,69.1,85,30.02,10.0,NE,6.9,-,N/A,,Mostly Cloudy,40,2012-12-07 14:53:00
10:14 AM,75.2,66.2,73,30.01,10.0,NE,6.9,-,N/A,,Scattered Clouds,40,2012-12-07 15:14:00
10:53 AM,75.0,66.9,76,30.01,10.0,Calm,Calm,-,N/A,,Scattered Clouds,0,2012-12-07 15:53:00
11:53 AM,75.0,66.9,76,29.99,10.0,ENE,5.8,-,N/A,,Scattered Clouds,70,2012-12-07 16:53:00
12:53 PM,77.0,66.9,71,29.96,10.0,East,9.2,-,N/A,,Scattered Clouds,100,2012-12-07 17:53:00
1:53 PM,77.0,66.9,71,29.94,10.0,East,8.1,-,N/A,,Scattered Clouds,90,2012-12-07 18:53:00
2:53 PM,77.0,64.9,66,29.93,10.0,SE,9.2,-,N/A,,Clear,130,2012-12-07 19:53:00
3:53 PM,75.9,64.0,67,29.93,10.0,East,5.8,-,N/A,,Clear,100,2012-12-07 20:53:00
4:53 PM,73.9,66.0,76,29.95,10.0,East,4.6,-,N/A,,Partly Cloudy,80,2012-12-07 21:53:00
5:53 PM,72.0,66.0,81,29.96,10.0,ENE,3.5,-,N/A,,Mostly Cloudy,70,2012-12-07 22:53:00
6:53 PM,70.0,66.0,87,29.97,10.0,East,3.5,-,N/A,,Clear,90,2012-12-07 23:53:00
8:53 PM,66.0,63.0,90,29.99,10.0,Calm,Calm,-,N/A,,Partly Cloudy,0,2012-12-08 01:53:00
9:53 PM,64.0,62.1,93,30.00,10.0,Calm,Calm,-,N/A,,Clear,0,2012-12-08 02:53:00
10:53 PM,63.0,63.0,100,30.01,7.0,Calm,Calm,-,N/A,,Clear,0,2012-12-08 03:53:00
11:53 PM,64.0,63.0,96,30.00,9.0,Calm,Calm,-,N/A,,Clear,0,2012-12-08 04:53:00